User: anonymous   Login
Location: Unspecified
(0.0000°N, 0.0000°E)
Time: 15:07:30
(UTC+02:00)
Language:

IUS-9 SRM-1 - Orbit

View from above orbital plane
View from above orbital plane
View from above satellite
View from above satellite

Ground track
Ground track

The orbit data is extracted from the following two-line orbital elements,

1 19884U 89021C   16241.95294939 +.00011464 +00000-0 +81414-3 0  9991
2 19884 026.4554 232.4875 5996088 282.2679 020.0344 04.09454756321957
Epoch (UTC): 28 August 2016 22:52:14
Eccentricity: 0.5996088
inclination: 26.4554°
perigee height: 230 km
apogee height: 20022 km
right ascension of ascending node: 232.4875°
argument of perigee: 282.2679°
revolutions per day: 4.09454756
mean anomaly at epoch: 20.0344°
orbit number at epoch: 32195

The dashed part of the orbit path shows where the satellite is in the earth's shadow,  

DLR